Date,TemperatureHighF,TemperatureAvgF,TemperatureLowF,DewpointHighF,DewpointAvgF,DewpointLowF,HumidityHigh,HumidityAvg,HumidityLow,PressureMaxIn,PressureMinIn,WindSpeedMaxMPH,WindSpeedAvgMPH,GustSpeedMaxMPH,PrecipitationSumIn
2012-3-4,65.2,53.0,37.5,58.0,49.5,37.0,99,88,75,30.24,30.07,0,0,0,0.00
2012-3-5,64.7,47.9,37.0,54.0,44.2,36.0,99,88,59,30.12,29.99,2,0,2,0.00
2012-3-6,55.3,46.5,38.0,46.0,34.9,28.0,97,67,36,30.12,29.95,4,1,10,0.00
2012-3-7,60.9,43.2,30.9,44.0,34.7,29.0,93,75,32,30.21,30.12,3,0,4,0.00
2012-3-8,66.2,46.6,32.5,46.0,37.8,31.0,96,74,38,30.34,30.21,1,0,3,0.00
2012-3-9,67.4,46.7,33.4,48.0,38.9,32.0,95,77,43,30.36,30.16,0,0,2,0.00
2012-3-10,57.4,46.0,35.3,50.0,42.3,34.0,96,87,74,30.16,29.98,4,0,8,0.00
2012-3-11,55.1,47.2,40.1,50.0,44.1,39.0,98,89,59,30.07,30.01,5,0,8,0.06
2012-3-12,55.4,45.5,36.3,48.0,41.6,36.0,98,87,65,30.07,29.92,2,0,5,0.10
2012-3-13,53.1,51.4,49.0,53.0,51.3,48.0,99,99,97,29.96,29.83,4,0,7,3.96
2012-3-14,56.1,53.0,51.0,56.0,52.9,51.0,100,100,99,30.11,29.94,1,0,1,0.61
2012-3-15,57.1,53.9,52.1,56.0,53.5,52.0,100,99,93,30.14,30.03,2,0,3,0.41
2012-3-16,54.1,51.5,44.1,54.0,51.4,44.0,100,99,97,30.04,29.73,5,0,10,1.99
2012-3-17,54.2,45.0,38.3,47.0,40.3,34.0,100,85,50,29.72,29.51,9,1,15,0.00
2012-3-18,50.6,42.9,37.2,39.0,35.8,31.0,97,78,48,29.97,29.65,7,2,18,0.00
2012-3-19,53.0,43.0,34.8,43.0,36.7,32.0,95,80,49,30.11,29.97,2,0,5,0.00
2012-3-20,56.6,49.4,43.7,52.0,46.2,41.0,96,88,76,30.22,30.11,2,0,3,0.00
2012-3-21,64.7,54.8,49.6,56.0,51.9,49.0,98,90,67,30.20,29.96,2,0,6,0.00
2012-3-22,59.0,50.5,38.8,52.0,42.7,31.0,98,78,37,30.01,29.90,9,1,11,0.03
2012-3-23,55.8,44.8,34.0,45.0,39.4,33.0,97,83,50,30.11,29.88,2,0,4,0.00
2012-3-24,46.8,43.7,39.8,45.0,42.5,39.0,98,96,88,29.93,29.82,5,0,7,0.81
2012-3-25,53.9,45.2,40.3,48.0,43.3,40.0,99,93,70,29.91,29.80,5,0,7,0.25
2012-3-26,53.3,44.3,34.7,47.0,41.8,34.0,98,91,73,30.10,29.91,2,0,6,0.02
2012-3-27,52.1,49.5,46.9,52.0,49.3,46.0,100,99,98,30.01,29.85,2,0,4,3.68
2012-3-28,59.7,51.3,45.1,53.0,49.5,44.0,100,94,60,30.12,29.90,4,0,6,0.49
2012-3-29,53.0,49.6,45.1,53.0,49.2,44.0,99,98,96,30.14,30.06,0,0,1,0.05
2012-3-30,55.7,53.5,51.8,56.0,53.6,52.0,100,100,99,30.09,29.88,0,0,2,0.25
2012-3-31,55.5,50.6,45.4,54.0,49.0,45.0,100,94,72,30.01,29.68,5,1,9,0.59
2012-4-1,58.6,47.1,38.3,47.0,42.0,38.0,100,85,49,30.29,30.02,6,1,9,0.00
2012-4-2,62.0,48.1,38.0,52.0,44.0,37.0,99,87,52,30.29,30.06,2,0,3,0.00
2012-4-3,61.5,48.9,40.6,52.0,46.2,40.0,98,91,65,30.12,30.00,4,0,7,0.00
2012-4-4,56.9,45.0,37.2,43.0,38.7,36.0,99,81,46,30.23,30.10,7,1,12,0.00
2012-4-5,58.0,43.9,33.1,40.0,34.6,28.0,97,74,36,30.19,30.09,12,1,12,0.00
2012-4-6,58.7,43.2,31.8,40.0,34.0,30.0,97,74,38,30.31,30.18,3,0,5,0.00
2012-4-7,64.7,46.6,32.6,49.0,37.9,31.0,94,75,36,30.20,30.04,2,0,4,0.00
2012-4-8,63.4,47.3,34.1,45.0,39.0,33.0,96,75,43,30.10,30.01,0,0,0,0.00
2012-4-9,66.4,51.7,41.7,48.0,43.1,32.0,95,76,28,30.04,29.80,1,0,5,0.00
2012-4-10,53.6,51.4,49.0,53.0,50.9,47.0,99,98,86,29.88,29.81,0,0,0,0.46
2012-4-11,56.8,51.1,46.7,51.0,49.0,47.0,100,93,75,29.94,29.81,3,0,9,0.04
2012-4-12,56.8,48.8,45.3,50.0,47.0,43.0,99,94,62,30.01,29.78,3,0,8,0.75
2012-4-13,55.8,48.1,41.3,47.0,43.8,40.0,99,86,60,29.89,29.72,8,1,12,0.31
2012-4-14,65.1,51.0,38.4,53.0,44.9,38.0,98,82,46,30.12,29.89,4,0,8,0.00
2012-4-15,65.4,51.0,42.7,54.0,47.6,42.0,99,89,61,30.23,30.13,2,0,3,0.00
2012-4-16,62.1,51.5,42.7,52.0,47.4,42.0,98,87,61,30.25,30.18,0,0,0,0.00
2012-4-17,63.1,52.5,43.7,55.0,49.5,43.0,99,89,72,30.20,30.08,0,0,0,0.00
2012-4-18,70.2,55.9,45.2,55.0,50.5,44.0,98,83,53,30.16,30.08,6,0,8,0.00
2012-4-19,76.1,61.9,51.0,65.0,57.4,50.0,96,86,62,30.17,30.03,0,0,0,0.00
2012-4-20,86.9,65.6,52.6,64.0,58.0,52.0,99,80,35,30.07,29.91,0,0,0,0.00
2012-4-21,86.6,65.0,51.7,64.0,56.8,50.0,96,78,40,29.97,29.82,0,0,0,0.00
2012-4-22,77.9,60.3,51.8,61.0,54.2,51.0,97,82,50,29.92,29.84,0,0,0,0.00
2012-4-23,59.4,55.4,53.0,55.0,53.3,51.0,98,92,83,30.00,29.91,0,0,0,0.01
2012-4-24,62.0,57.2,54.9,59.0,56.2,54.0,99,96,80,30.05,29.96,0,0,0,0.11
2012-4-25,66.2,58.4,55.2,59.0,56.2,55.0,99,92,69,30.00,29.76,0,0,0,0.00
2012-4-26,60.8,54.7,45.6,55.0,48.0,41.0,97,80,51,30.21,29.77,11,2,14,0.03
2012-4-27,70.1,54.3,40.6,53.0,43.6,37.0,96,72,32,30.25,30.11,4,0,8,0.00
2012-4-28,78.3,60.2,45.9,60.0,50.8,44.0,93,74,37,30.14,29.86,6,0,7,0.00
2012-4-29,81.5,61.4,48.2,59.0,53.3,47.0,97,77,41,29.91,29.84,2,0,4,0.00
2012-4-30,80.9,62.5,49.6,60.0,52.7,48.0,96,74,40,29.95,29.86,7,1,9,0.00
2012-5-1,72.7,57.3,44.3,49.0,45.4,42.0,96,69,34,29.92,29.82,10,1,10,0.00
2012-5-2,67.0,52.1,40.0,49.0,43.0,37.0,92,73,47,29.96,29.87,2,0,4,0.00
2012-5-3,56.3,52.1,47.1,56.0,50.6,44.0,98,94,85,30.09,29.95,1,0,2,0.23
2012-5-4,66.4,55.5,45.1,52.0,47.0,40.0,99,76,39,30.20,30.09,9,1,9,0.00
2012-5-5,75.1,56.3,42.0,56.0,46.1,35.0,96,73,25,30.24,30.04,3,0,3,0.00
2012-5-6,82.7,60.9,45.6,56.0,47.9,39.0,92,68,24,30.08,29.97,2,0,4,0.00
2012-5-7,84.9,62.8,47.1,57.0,48.9,42.0,94,67,23,30.02,29.91,2,0,4,0.00
2012-5-8,83.7,60.4,47.5,57.0,50.5,45.0,93,73,30,29.96,29.86,1,0,4,0.00
2012-5-9,83.2,62.8,48.4,63.0,52.9,47.0,95,73,45,29.95,29.82,1,0,3,0.00
2012-5-10,78.5,60.4,45.2,57.0,48.6,41.0,94,70,27,29.91,29.79,1,0,3,0.00
2012-5-11,83.0,62.3,47.9,55.0,48.3,41.0,95,67,23,29.96,29.86,2,0,4,0.00
2012-5-12,80.6,58.8,46.0,57.0,48.7,44.0,95,73,30,30.04,29.96,1,0,3,0.00
2012-5-13,63.3,53.9,48.3,53.0,49.1,46.0,94,84,68,30.09,30.02,3,0,6,0.00
2012-5-14,66.4,56.7,47.5,54.0,50.5,46.0,95,81,60,30.09,30.01,6,0,6,0.00
2012-5-15,71.9,56.0,47.3,57.0,50.0,46.0,97,82,56,30.05,29.96,2,0,4,0.00
2012-5-16,73.0,56.6,49.3,58.0,51.1,47.0,95,83,58,30.02,29.90,2,0,4,0.00
2012-5-17,77.0,60.0,50.0,57.0,49.6,45.0,95,72,38,29.93,29.77,6,1,11,0.00
2012-5-18,77.9,59.2,45.2,53.0,46.8,42.0,90,68,32,29.95,29.87,2,0,4,0.00
2012-5-19,81.5,60.9,44.3,57.0,49.3,42.0,94,70,30,29.97,29.88,2,0,4,0.00
2012-5-20,84.3,63.7,49.5,57.0,51.9,47.0,91,69,30,29.97,29.87,2,0,5,0.00
2012-5-21,69.7,60.1,49.1,59.0,53.7,47.0,94,80,63,30.08,29.96,4,0,5,0.00
2012-5-22,78.2,62.3,50.5,57.0,51.5,49.0,97,72,37,30.11,30.02,8,1,12,0.00
2012-5-23,76.7,62.5,50.8,49.0,45.0,39.0,90,57,32,30.05,29.89,8,1,11,0.00
2012-5-24,72.3,60.1,49.4,47.0,42.2,38.0,80,54,34,29.90,29.73,7,1,11,0.00
2012-5-25,68.1,57.3,47.7,47.0,41.7,39.0,79,58,39,29.82,29.71,4,1,8,0.00
2012-5-26,70.8,57.9,45.3,54.0,48.9,43.0,93,74,49,30.05,29.82,2,0,4,0.00
2012-5-27,68.6,56.5,45.4,54.0,49.1,44.0,95,78,57,30.13,30.05,2,0,4,0.00
2012-5-28,70.2,56.6,44.3,54.0,49.1,42.0,95,78,55,30.06,29.96,4,0,4,0.00
2012-5-29,73.3,58.1,44.3,54.0,49.4,43.0,95,75,47,30.06,29.98,2,0,4,0.00
2012-5-30,82.0,62.0,46.9,59.0,52.2,45.0,95,73,38,30.08,29.95,2,0,3,0.00
2012-5-31,85.9,65.0,49.1,60.0,53.9,47.0,94,71,34,30.01,29.81,2,0,3,0.00
2012-6-1,92.9,69.0,53.7,64.0,57.6,52.0,94,71,32,29.83,29.70,2,0,5,0.00
2012-6-2,82.5,67.3,54.6,63.0,54.7,50.0,92,68,36,29.91,29.78,7,1,11,0.00
2012-6-3,74.6,61.1,49.4,53.0,50.3,46.0,93,71,36,29.92,29.84,6,0,7,0.00
2012-6-4,61.0,56.8,48.4,56.0,51.4,45.0,96,82,67,30.10,29.87,8,1,14,0.01
2012-6-5,68.5,55.6,43.6,46.0,43.4,39.0,95,67,35,30.19,30.10,5,1,10,0.00
2012-6-6,75.8,59.0,44.7,54.0,45.2,31.0,87,64,24,30.13,29.91,5,0,5,0.00
2012-6-7,77.9,62.3,46.7,56.0,50.4,44.0,90,68,41,30.00,29.93,6,0,7,0.00
2012-6-8,76.9,61.6,48.1,51.0,43.2,33.0,92,57,21,29.99,29.89,5,1,9,0.00
2012-6-9,82.1,63.8,47.3,47.0,38.8,22.0,75,46,11,30.00,29.87,3,0,5,0.00
2012-6-10,90.3,69.6,52.0,49.0,41.1,23.0,68,41,9,29.89,29.82,1,0,4,0.00
2012-6-11,90.9,69.6,53.2,59.0,49.6,46.0,79,53,22,29.93,29.84,0,0,0,0.00
2012-6-12,91.1,72.7,54.8,59.0,50.9,44.0,84,52,20,29.95,29.84,7,1,11,0.00
2012-6-13,88.0,70.1,54.5,62.0,54.2,49.0,84,60,35,29.85,29.67,0,0,0,0.00
2012-6-14,92.0,69.0,52.9,58.0,48.2,34.0,88,55,15,29.78,29.70,5,0,8,0.00
2012-6-15,91.9,71.9,53.8,62.0,50.1,38.0,72,49,24,29.79,29.69,0,0,0,0.00
2012-6-16,99.6,75.6,58.9,62.0,57.2,46.0,87,59,17,29.83,29.71,0,0,0,0.00
2012-6-17,79.1,66.3,53.9,57.0,53.0,49.0,83,65,37,29.89,29.74,0,0,0,0.00
2012-6-18,75.4,62.2,53.4,55.0,51.6,49.0,86,70,45,29.90,29.76,0,0,0,0.00
2012-6-19,80.6,64.0,50.2,55.0,51.4,47.0,88,67,34,29.89,29.80,0,0,0,0.00
2012-6-20,89.4,68.9,52.7,58.0,49.8,37.0,88,58,17,29.84,29.74,0,0,0,0.00
2012-6-21,73.1,59.5,51.9,54.0,50.2,47.0,86,72,50,29.91,29.77,0,0,0,0.00
2012-6-22,62.5,55.7,48.7,54.0,50.7,45.0,88,83,73,29.96,29.85,1,0,4,0.00
2012-6-23,66.2,56.6,47.4,52.0,48.1,44.0,91,75,47,29.94,29.84,5,0,7,0.00
2012-6-24,68.0,55.8,44.2,51.0,46.0,42.0,93,72,47,30.02,29.92,6,1,8,0.00
2012-6-25,68.0,57.0,45.5,52.0,47.8,42.0,89,73,53,30.08,30.02,8,1,10,0.00
2012-6-26,74.9,59.8,45.8,53.0,48.0,43.0,91,68,39,30.07,29.88,5,0,7,0.00
2012-6-27,80.5,63.2,48.1,54.0,48.8,44.0,87,63,33,29.92,29.85,2,0,4,0.00
2012-6-28,76.7,62.5,50.2,56.0,51.6,47.0,89,70,45,30.05,29.93,2,0,4,0.00
2012-6-29,72.0,60.9,51.1,58.0,53.8,48.0,91,79,61,30.09,30.00,2,0,3,0.00
2012-6-30,74.9,63.6,53.8,63.0,57.4,51.0,91,81,64,30.02,29.92,2,0,4,0.00
2012-7-1,78.1,68.5,61.1,63.0,60.1,57.0,89,76,58,29.93,29.81,2,0,4,0.00
2012-7-2,83.5,68.1,56.0,63.0,57.3,52.0,91,71,44,29.87,29.77,2,0,3,0.00
2012-7-3,87.8,67.5,51.1,58.0,53.4,48.0,90,65,33,29.88,29.75,2,0,5,0.00
2012-7-4,81.0,67.1,54.2,59.0,54.2,51.0,88,66,38,29.84,29.77,2,0,4,0.00
2012-7-5,77.2,62.5,50.9,56.0,51.6,48.0,89,70,40,29.95,29.84,2,0,3,0.00
2012-7-6,84.2,64.2,48.7,58.0,51.5,46.0,90,67,35,30.01,29.91,2,0,4,0.00
2012-7-7,90.7,67.0,50.7,56.0,49.7,42.0,89,60,21,29.98,29.88,2,0,4,0.00
2012-7-8,82.3,63.9,49.1,55.0,49.6,43.0,87,63,27,30.00,29.93,1,0,3,0.00
2012-7-9,84.0,64.5,52.8,56.0,50.5,46.0,87,65,30,30.04,29.89,2,0,3,0.00
2012-7-10,92.0,68.6,50.9,57.0,51.0,45.0,87,59,20,29.94,29.78,1,0,4,0.00
2012-7-11,90.3,70.6,54.0,59.0,53.2,49.0,84,59,25,29.86,29.76,1,0,4,0.00
2012-7-12,92.7,71.0,54.4,62.0,54.9,49.0,84,61,30,29.82,29.71,2,0,3,0.00
2012-7-13,80.1,62.3,51.5,57.0,51.7,48.0,88,70,44,29.88,29.80,2,0,4,0.00
2012-7-14,74.1,61.1,54.3,57.0,52.6,50.0,86,75,55,29.94,29.84,2,0,3,0.00
2012-7-15,72.0,59.6,52.0,57.0,52.2,48.0,89,77,57,29.90,29.81,2,0,4,0.00
2012-7-16,66.2,56.5,51.8,54.0,51.1,49.0,92,83,61,29.89,29.82,2,0,4,0.00
2012-7-17,63.1,58.9,52.8,55.0,53.2,50.0,89,82,72,30.00,29.88,1,0,3,0.00
2012-7-18,72.4,58.4,49.2,56.0,51.9,47.0,93,80,57,30.02,29.95,2,0,5,0.00
2012-7-19,71.0,60.8,54.2,58.0,54.4,52.0,92,80,60,30.04,29.97,2,0,5,0.00
2012-7-20,86.5,66.5,51.2,61.0,54.9,49.0,94,71,34,30.08,29.94,2,0,3,0.00
2012-7-21,92.6,71.4,55.3,63.0,55.8,51.0,90,63,26,29.97,29.82,1,0,3,0.00
2012-7-22,90.7,70.8,54.6,59.0,53.9,50.0,87,60,27,29.89,29.77,1,0,3,0.00
2012-7-23,77.1,64.3,56.0,56.0,52.5,50.0,82,67,47,29.93,29.84,2,0,4,0.00
2012-7-24,73.6,62.0,54.6,54.0,52.4,50.0,83,72,50,29.98,29.91,2,0,5,0.00
2012-7-25,74.3,62.0,53.7,55.0,52.2,49.0,85,72,48,30.01,29.93,4,0,4,0.00
2012-7-26,71.4,59.3,54.0,55.0,51.8,50.0,88,77,54,30.00,29.92,2,0,4,0.00
2012-7-27,75.2,61.2,53.4,57.0,52.5,50.0,88,75,52,30.01,29.94,2,0,4,0.00
2012-7-28,85.0,65.4,51.9,59.0,53.3,48.0,89,68,38,30.03,29.92,1,0,3,0.00
2012-7-29,86.5,66.4,52.4,57.0,52.9,48.0,88,66,32,30.03,29.90,2,0,3,0.00
2012-7-30,92.5,70.1,53.3,59.0,53.7,48.0,86,61,22,29.97,29.82,1,0,3,0.00
2012-7-31,90.3,70.5,54.4,56.0,52.7,48.0,85,59,24,29.96,29.86,2,0,4,0.00
2012-8-1,86.2,67.7,53.1,57.0,52.4,49.0,86,62,30,30.03,29.91,1,0,3,0.00
2012-8-2,89.4,68.4,52.2,58.0,52.6,48.0,86,61,32,29.98,29.83,2,0,4,0.00
2012-8-3,80.6,62.3,52.8,57.0,51.7,49.0,87,70,43,29.89,29.79,1,0,3,0.00
2012-8-4,68.1,59.1,52.9,56.0,52.1,48.0,84,78,65,29.96,29.84,2,0,6,0.00
2012-8-5,72.0,63.2,57.6,59.0,56.1,53.0,85,78,63,30.07,29.95,2,0,5,0.00
2012-8-6,80.7,66.2,57.5,59.0,54.4,52.0,87,68,39,30.13,30.00,1,0,3,0.00
2012-8-7,84.1,64.7,50.4,57.0,50.4,45.0,89,65,27,30.05,29.93,1,0,3,0.00
2012-8-8,94.3,68.7,51.2,55.0,48.6,41.0,84,56,16,30.00,29.85,1,0,4,0.00
2012-8-9,94.9,72.4,53.1,58.0,52.2,45.0,83,55,18,29.93,29.77,2,0,4,0.00
2012-8-10,95.1,71.3,55.2,57.0,53.1,45.0,85,58,19,29.83,29.67,2,0,4,0.00
2012-8-11,92.1,69.2,53.3,57.0,51.2,47.0,84,58,22,29.81,29.69,2,0,3,0.00
2012-8-12,87.6,65.2,50.2,55.0,49.7,46.0,85,62,29,29.86,29.75,2,0,3,0.00
2012-8-13,90.5,67.9,52.7,57.0,49.1,37.0,84,58,16,29.85,29.73,1,0,3,0.00
2012-8-14,82.2,65.9,55.2,56.0,51.6,47.0,79,62,30,29.82,29.76,2,0,4,0.00
2012-8-15,78.1,63.5,54.3,58.0,53.2,49.0,83,71,46,29.91,29.80,1,0,3,0.00
2012-8-16,80.1,63.0,54.1,56.0,52.2,49.0,84,70,43,29.96,29.86,1,0,2,0.00
2012-8-17,79.2,63.9,53.4,57.0,53.3,50.0,88,71,44,30.00,29.87,2,0,4,0.00
2012-8-18,83.6,65.2,56.1,57.0,53.6,50.0,84,68,38,29.94,29.85,2,0,3,0.00
2012-8-19,81.8,62.6,49.3,58.0,52.4,47.0,91,72,42,29.95,29.83,2,0,3,0.00
2012-8-20,83.6,63.5,48.7,58.0,51.9,46.0,91,69,38,29.92,29.79,2,0,3,0.00
2012-8-21,82.6,63.3,50.0,58.0,52.8,48.0,92,72,39,29.91,29.79,1,0,3,0.00
2012-8-22,82.9,61.3,50.3,59.0,52.4,48.0,92,75,44,29.91,29.84,2,0,3,0.00
2012-8-23,75.2,59.3,50.1,58.0,51.6,47.0,92,77,53,29.95,29.82,2,0,4,0.00
2012-8-24,78.4,59.5,47.4,58.0,50.9,45.0,93,76,45,29.90,29.81,2,0,4,0.00
2012-8-25,72.4,58.2,50.9,56.0,50.9,48.0,90,78,55,29.88,29.77,2,0,3,0.00
2012-8-26,71.0,59.0,51.6,54.0,50.8,48.0,90,76,53,29.97,29.83,2,0,4,0.00
2012-8-27,78.5,62.3,48.4,60.0,53.5,46.0,91,75,51,30.04,29.92,2,0,3,0.00
2012-8-28,83.6,64.9,51.7,59.0,52.3,49.0,93,68,32,30.02,29.90,3,0,3,0.00
2012-8-29,88.9,65.7,48.5,54.0,47.5,42.0,89,58,20,29.93,29.76,1,0,3,0.00
2012-8-30,83.6,63.1,49.9,54.0,47.5,43.0,85,60,28,29.81,29.72,2,0,3,0.00
2012-8-31,68.5,58.6,52.4,55.0,51.9,49.0,88,79,61,29.92,29.81,1,0,4,0.00
2012-9-1,73.5,58.3,49.9,57.0,51.3,47.0,91,79,54,30.03,29.92,2,0,5,0.00
2012-9-2,85.2,62.1,46.4,58.0,49.0,39.0,93,68,19,29.99,29.86,1,0,4,0.00
2012-9-3,88.3,64.7,49.3,54.0,48.8,46.0,89,62,24,29.96,29.88,2,0,3,0.00
2012-9-4,81.6,60.3,47.5,56.0,49.9,44.0,89,71,42,30.01,29.92,2,0,3,0.00
2012-9-5,73.3,58.0,50.1,57.0,51.0,48.0,92,79,57,30.00,29.91,2,0,3,0.00
2012-9-6,72.1,56.7,48.3,55.0,48.8,45.0,92,77,44,30.03,29.94,1,0,4,0.00
2012-9-7,75.7,57.7,47.3,53.0,48.0,44.0,91,73,39,30.11,29.98,2,0,4,0.00
2012-9-8,76.1,59.1,47.7,55.0,49.7,45.0,91,73,47,30.06,29.91,2,0,3,0.00
2012-9-9,80.2,59.8,44.1,56.0,49.1,41.0,92,71,36,29.98,29.84,2,0,3,0.00
2012-9-10,83.4,62.2,47.2,55.0,49.2,45.0,92,67,29,29.92,29.77,4,0,4,0.00
2012-9-11,81.3,61.3,49.6,57.0,51.3,46.0,89,72,41,29.95,29.81,1,0,3,0.00
2012-9-12,78.1,61.1,52.5,56.0,51.5,47.0,90,74,35,30.07,29.94,1,0,4,0.00
2012-9-13,81.4,60.0,49.1,57.0,51.0,47.0,92,75,41,30.09,29.99,2,0,3,0.00
2012-9-14,73.8,59.7,52.0,57.0,52.2,48.0,90,78,54,30.10,29.99,1,0,3,0.00
2012-9-15,78.4,58.6,49.6,55.0,49.9,47.0,93,76,36,30.11,29.98,2,0,2,0.00
2012-9-16,78.9,57.1,46.4,57.0,48.3,45.0,94,76,40,30.06,29.95,1,0,3,0.00
2012-9-17,69.2,54.8,48.9,52.0,48.6,46.0,91,81,55,30.08,29.98,2,0,4,0.00
2012-9-18,72.3,56.0,48.3,54.0,49.0,46.0,90,79,50,30.12,29.99,2,0,3,0.00
2012-9-19,74.8,56.4,46.5,56.0,49.1,45.0,94,79,49,30.12,30.00,1,0,3,0.00
2012-9-20,77.0,58.1,44.5,54.0,49.1,42.0,94,75,43,30.08,29.93,2,0,2,0.00
2012-9-21,80.9,58.9,43.6,53.0,47.5,41.0,92,70,32,30.00,29.84,0,0,0,0.00
2012-9-22,83.0,60.7,45.6,53.0,46.9,43.0,91,65,32,29.93,29.83,0,0,0,0.00
2012-9-23,81.1,59.7,48.4,52.0,45.9,42.0,82,63,29,29.95,29.88,0,0,0,0.00
2012-9-24,75.5,58.2,47.3,55.0,49.9,44.0,91,76,47,29.96,29.84,0,0,0,0.00
2012-9-25,73.8,57.9,47.0,56.0,50.1,44.0,92,77,51,29.92,29.81,0,0,0,0.00
2012-9-26,75.3,58.0,47.1,57.0,50.4,45.0,93,77,50,29.90,29.81,0,0,0,0.00
2012-9-27,81.6,60.2,46.9,62.0,51.6,44.0,92,76,47,29.93,29.81,0,0,0,0.00
2012-9-28,70.3,56.2,47.6,55.0,50.1,45.0,91,81,58,29.96,29.87,0,0,0,0.00
2012-9-29,77.3,59.4,51.0,60.0,52.1,48.0,93,78,48,30.04,29.94,0,0,0,0.00
2012-9-30,82.0,61.2,45.8,58.0,48.9,43.0,92,68,36,30.07,29.95,0,0,0,0.00
2012-10-1,86.7,64.4,49.7,54.0,44.8,38.0,76,52,26,30.00,29.87,0,0,0,0.00
2012-10-2,89.0,67.3,51.8,54.0,44.9,39.0,66,47,26,29.88,29.75,0,0,0,0.00
2012-10-3,86.0,64.4,53.0,56.0,48.9,43.0,86,60,25,29.99,29.80,0,0,0,0.00
2012-10-4,66.2,59.4,52.7,55.0,53.4,50.0,89,81,66,30.13,30.00,0,0,0,0.00
2012-10-5,69.4,58.8,50.7,57.0,51.9,48.0,92,79,57,30.15,30.05,5,0,7,0.00
2012-10-6,68.9,56.5,47.1,55.0,50.4,45.0,92,81,58,30.06,29.95,2,0,4,0.00
2012-10-7,72.3,56.4,48.9,57.0,50.5,47.0,94,82,52,30.01,29.91,2,0,3,0.00
2012-10-8,68.2,54.0,44.5,54.0,48.2,42.0,92,82,59,30.03,29.97,3,0,6,0.00
2012-10-9,68.1,55.1,47.2,55.0,49.1,45.0,93,81,57,30.04,29.93,1,0,2,0.00
2012-10-10,70.7,55.5,44.6,54.0,48.8,42.0,93,79,54,29.98,29.85,2,0,3,0.00
2012-10-11,59.4,55.3,53.2,52.0,50.6,50.0,88,84,76,29.95,29.85,1,0,2,0.00
2012-10-12,62.3,57.4,50.5,52.0,50.1,47.0,87,77,65,30.22,29.93,0,0,3,0.02
2012-10-13,72.6,57.2,46.4,58.0,51.4,44.0,92,82,58,30.30,30.14,1,0,3,0.00
2012-10-14,74.6,59.8,51.9,61.0,54.9,50.0,94,84,61,30.21,30.05,2,0,3,0.00
2012-10-15,76.9,61.6,49.5,61.0,54.7,47.0,94,80,50,30.09,29.92,0,0,2,0.00
2012-10-16,85.1,68.4,60.0,65.0,57.4,52.0,93,71,33,29.99,29.83,3,0,10,0.00
2012-10-17,79.1,61.7,49.1,54.0,46.6,34.0,91,62,33,29.91,29.78,0,0,1,0.00
2012-10-18,84.9,62.5,47.7,57.0,44.9,35.0,79,56,21,30.02,29.88,2,0,5,0.00
2012-10-19,74.3,63.1,56.5,59.0,56.6,54.0,90,80,56,30.05,29.91,2,0,3,0.00
2012-10-20,78.2,60.2,51.5,59.0,49.0,24.0,93,72,14,29.91,29.75,4,0,8,0.00
2012-10-21,68.0,53.8,43.7,45.0,39.8,32.0,80,62,27,29.91,29.81,4,0,8,0.00
2012-10-22,56.3,52.6,48.3,54.0,50.2,46.0,95,91,80,29.92,29.71,3,0,7,1.35
2012-10-23,56.7,49.2,44.5,53.0,47.3,43.0,99,93,70,30.05,29.92,2,0,5,0.06
2012-10-24,59.9,53.2,49.7,54.0,51.1,49.0,97,92,70,30.19,30.00,3,0,5,0.24
2012-10-25,60.2,53.8,48.2,56.0,52.1,47.0,97,94,84,30.26,30.19,1,0,3,0.08
2012-10-26,63.5,53.1,43.6,61.0,51.5,43.0,99,94,86,30.24,30.07,2,0,3,0.00
2012-10-27,69.8,58.3,49.8,65.0,56.9,49.0,100,95,85,30.09,29.94,0,0,2,0.00
2012-10-28,71.7,58.0,50.6,64.0,56.2,50.0,100,94,71,30.01,29.93,2,0,3,0.00
2012-10-29,67.0,55.4,47.5,62.0,53.8,47.0,99,94,83,30.10,30.01,0,0,0,0.00
2012-10-30,65.8,54.4,49.4,61.0,53.2,49.0,99,95,81,30.08,29.96,0,0,0,0.00
2012-10-31,57.9,56.2,54.5,58.0,56.0,54.0,99,99,97,30.01,29.95,0,0,0,1.81
2012-11-1,63.4,56.5,48.3,61.0,56.1,48.0,100,98,86,30.07,29.98,1,0,3,0.03
2012-11-2,59.3,50.9,44.5,58.0,50.3,44.0,100,97,91,30.10,30.03,1,0,1,0.00
2012-11-3,63.6,54.7,48.9,61.0,53.6,48.0,100,96,88,30.15,30.07,0,0,0,0.00
2012-11-4,66.7,56.4,48.3,64.0,55.5,48.0,100,97,90,30.20,30.11,0,0,0,0.00
2012-11-5,67.8,58.0,49.5,65.0,57.1,49.0,100,97,89,30.14,30.02,0,0,0,0.00
2012-11-6,67.6,56.9,48.8,64.0,55.8,48.0,100,96,87,30.09,29.98,0,0,0,0.00
2012-11-7,60.7,53.7,48.7,58.0,52.6,49.0,99,96,89,30.05,29.90,1,0,2,0.00
2012-11-8,54.7,47.0,39.3,49.0,43.9,38.0,98,89,64,29.92,29.85,7,0,11,0.04
2012-11-9,55.2,42.6,36.4,47.0,40.4,36.0,99,92,58,29.99,29.89,6,0,7,0.00
2012-11-10,57.4,42.3,33.3,45.0,38.0,33.0,99,86,48,30.26,29.99,5,0,7,0.00
2012-11-11,53.3,41.8,32.8,46.0,39.2,32.0,99,91,72,30.41,30.26,1,0,2,0.00
2012-11-12,54.7,44.9,37.6,49.0,42.4,37.0,98,91,77,30.41,30.28,1,0,1,0.00
2012-11-13,57.8,47.9,39.7,55.0,46.4,39.0,98,94,87,30.30,30.11,0,0,0,0.00
2012-11-14,60.9,50.0,41.2,58.0,48.9,40.0,99,96,89,30.15,30.02,1,0,2,0.00
2012-11-15,60.4,50.5,42.0,57.0,49.0,42.0,99,94,75,30.04,29.95,2,0,3,0.00
2012-11-16,55.7,53.1,50.4,56.0,52.7,50.0,100,98,95,30.00,29.85,0,0,1,1.40
2012-11-17,58.2,55.2,48.8,58.0,55.0,49.0,100,99,88,30.00,29.78,3,-10,6,2.51
2012-11-18,53.1,48.0,41.4,53.0,47.9,41.0,100,99,99,30.15,30.00,0,0,0,0.01
2012-11-19,56.0,53.4,50.4,56.0,53.4,50.0,100,100,99,30.20,30.13,0,0,0,0.20
2012-11-20,58.9,57.5,55.4,59.0,57.6,55.0,100,100,100,30.12,29.97,2,0,4,1.77
2012-11-21,57.5,52.8,44.1,57.0,52.4,44.0,100,99,92,30.22,30.02,4,0,5,0.10
2012-11-22,55.1,46.5,39.5,55.0,46.4,39.0,100,99,97,30.28,30.19,1,0,1,0.01
2012-11-23,56.5,47.4,40.1,56.0,47.3,40.0,100,99,98,30.29,30.18,1,0,1,0.00
2012-11-24,56.7,48.0,40.6,56.0,47.9,40.0,100,99,97,30.22,30.05,1,0,1,0.00
2012-11-25,56.6,49.3,43.1,56.0,49.3,43.0,100,99,98,30.05,29.93,1,0,1,0.00
2012-11-26,56.4,49.7,43.3,56.0,49.7,43.0,100,99,97,30.09,29.99,1,0,2,0.00
2012-11-27,55.7,52.8,51.2,55.0,52.3,51.0,99,98,95,30.12,29.99,1,0,1,0.00
2012-11-28,55.4,53.8,52.2,55.0,53.5,52.0,100,99,95,30.03,29.80,1,0,9,2.08
2012-11-29,59.0,56.1,53.2,59.0,56.1,53.0,100,100,100,30.02,29.81,3,0,5,2.35
2012-11-30,58.9,57.4,55.4,59.0,57.4,55.0,100,100,100,29.97,29.76,5,0,5,2.63
2012-12-1,60.2,57.6,56.4,60.0,57.7,56.0,100,100,100,30.01,29.81,3,0,4,1.46
2012-12-2,60.2,52.7,44.1,60.0,52.4,44.0,100,99,90,30.12,29.65,7,1,9,2.18
2012-12-3,53.6,47.3,40.6,53.0,47.2,41.0,100,99,98,30.22,30.11,0,0,1,0.00
2012-12-4,54.1,52.3,50.5,54.0,52.4,51.0,100,100,100,30.23,30.14,0,0,0,1.39
2012-12-5,59.4,56.2,53.7,59.0,56.3,54.0,100,100,100,30.17,30.09,0,0,0,0.64
2012-12-6,56.8,51.6,44.5,56.0,51.1,45.0,100,98,85,30.15,30.07,1,0,4,0.01
2012-12-7,52.5,45.8,39.9,53.0,45.8,40.0,100,100,100,30.17,30.08,1,0,1,0.00
2012-12-8,53.4,44.9,38.4,53.0,44.9,38.0,100,100,99,30.16,30.05,1,0,1,0.00
2012-12-9,54.6,46.3,39.1,54.0,46.3,39.0,100,100,99,30.21,30.11,1,0,2,0.00
2012-12-10,55.7,46.8,40.1,55.0,46.8,40.0,100,100,98,30.26,30.13,1,0,1,0.00
2012-12-11,52.5,46.9,41.9,53.0,46.6,42.0,100,99,90,30.12,29.85,2,0,9,0.05
2012-12-12,52.6,43.8,36.8,48.0,42.5,36.0,100,95,69,29.91,29.83,3,0,6,0.01
2012-12-13,49.9,37.9,32.2,47.0,37.4,32.0,100,98,80,29.94,29.84,1,0,3,0.00
2012-12-14,50.0,39.6,33.6,47.0,39.2,33.0,99,98,81,30.07,29.84,1,0,2,0.01
2012-12-15,43.9,39.3,33.7,44.0,39.3,34.0,100,100,99,30.10,29.98,1,0,2,0.23
2012-12-16,49.7,46.0,43.4,50.0,46.1,43.0,100,100,100,30.09,29.97,0,0,1,0.87
2012-12-17,54.1,49.0,40.0,54.0,48.9,40.0,100,100,96,30.03,29.94,1,0,6,0.51
2012-12-18,48.1,38.8,33.0,41.0,35.7,31.0,100,90,53,30.23,30.01,4,0,9,0.00
2012-12-19,43.8,34.3,28.9,42.0,33.2,28.0,98,96,91,30.36,30.23,0,0,1,0.00
2012-12-20,49.5,43.6,35.0,50.0,42.4,34.0,100,95,87,30.24,29.95,5,0,5,0.86
2012-12-21,54.2,51.0,49.3,54.0,51.1,49.0,100,100,100,29.95,29.83,3,0,4,2.81
2012-12-22,52.5,47.3,44.6,53.0,47.3,45.0,100,100,95,30.06,29.79,9,0,17,1.00
2012-12-23,56.2,49.0,42.5,56.0,49.0,43.0,100,100,96,30.05,29.82,5,0,9,3.17
2012-12-24,48.1,42.7,37.6,48.0,42.8,38.0,100,100,100,30.23,30.04,0,0,1,0.00
2012-12-25,44.5,43.1,41.1,45.0,43.2,41.0,100,100,100,30.17,29.81,1,0,4,1.47
2012-12-26,52.2,44.3,40.7,48.0,43.7,41.0,100,97,80,30.13,29.86,6,0,9,0.24
2012-12-27,50.0,42.5,38.3,48.0,42.0,38.0,100,98,79,30.20,30.12,3,0,4,0.00
2012-12-28,44.8,40.8,35.9,45.0,40.8,36.0,100,99,99,30.21,30.04,1,0,1,0.19
2012-12-29,47.7,42.3,37.3,48.0,42.3,37.0,100,100,99,30.08,30.01,1,0,2,0.05
2012-12-30,46.1,38.9,33.5,46.0,38.8,34.0,100,100,99,30.20,30.06,1,0,1,0.00
2012-12-31,46.1,37.7,31.0,46.0,37.7,31.0,100,99,98,30.30,30.20,1,0,2,0.00
2013-1-1,45.9,37.9,31.8,44.0,37.5,32.0,100,98,93,30.31,30.23,1,0,2,0.00